Torna al catalogo

STARLINK-31904

AttivoComunicazioniVLEO
NORAD 59657·PAYLOAD·🇺🇸 United States

Lanciato May 6, 2024 da Cape Canaveral Space Force Station

Loading…

Prossimi Passaggi (prossime 24 ore)

TLE

AggiornatoSource: CelesTrak SupGP

Epoca: Sep 14, 2026, 22:07 UTC

1 59657C 24084D   26257.92201389  .00058119  00000+0  21052-2 0  2578
2 59657  43.0009  53.1856 0001441 272.3141  63.6397 15.27547936    12

Traccia STARLINK-31904 in tempo reale con AllMySat

Download on the App Store